Year,Month,Day,Hour,Minute,Value (Times are PST for barometer in hPa)
2011,11,23,00,00,992.95
2011,11,23,00,01,992.96
2011,11,23,00,02,992.96
2011,11,23,00,03,992.96
2011,11,23,00,04,992.96
2011,11,23,00,05,992.96
2011,11,23,00,06,992.96
2011,11,23,00,07,992.96
2011,11,23,00,08,992.96
2011,11,23,00,09,992.96
2011,11,23,00,10,992.96
2011,11,23,00,11,992.96
2011,11,23,00,12,992.96
2011,11,23,00,13,992.96
2011,11,23,00,16,992.72
2011,11,23,00,17,992.72
2011,11,23,00,18,992.72
2011,11,23,00,19,992.72
2011,11,23,00,20,992.72
2011,11,23,00,21,992.72
2011,11,23,00,22,992.72
2011,11,23,00,23,992.72
2011,11,23,00,24,992.72
2011,11,23,00,25,992.72
2011,11,23,00,26,992.72
2011,11,23,00,27,992.72
2011,11,23,00,28,992.72
2011,11,23,00,29,992.71
2011,11,23,00,30,992.58
2011,11,23,00,31,992.58
2011,11,23,00,32,992.58
2011,11,23,00,33,992.58
2011,11,23,00,34,992.58
2011,11,23,00,35,992.58
2011,11,23,00,36,992.58
2011,11,23,00,37,992.58
2011,11,23,00,38,992.58
2011,11,23,00,39,992.58
2011,11,23,00,40,992.58
2011,11,23,00,41,992.58
2011,11,23,00,42,992.58
2011,11,23,00,43,992.58
2011,11,23,00,44,992.58
2011,11,23,00,45,992.48
2011,11,23,00,46,992.48
2011,11,23,00,47,992.48
2011,11,23,00,48,992.48
2011,11,23,00,49,992.48
2011,11,23,00,50,992.48
2011,11,23,00,51,992.48
2011,11,23,00,52,992.48
2011,11,23,00,53,992.48
2011,11,23,00,54,992.48
2011,11,23,00,55,992.48
2011,11,23,00,56,992.48
2011,11,23,00,57,992.48
2011,11,23,00,58,992.48
2011,11,23,00,59,992.48
2011,11,23,01,00,992.45
2011,11,23,01,01,992.45
2011,11,23,01,02,992.45
2011,11,23,01,03,992.45
2011,11,23,01,04,992.45
2011,11,23,01,05,992.45
2011,11,23,01,06,992.45
2011,11,23,01,07,992.45
2011,11,23,01,08,992.45
2011,11,23,01,09,992.45
2011,11,23,01,10,992.45
2011,11,23,01,11,992.45
2011,11,23,01,12,992.45
2011,11,23,01,13,992.45
2011,11,23,01,14,992.46
2011,11,23,01,15,992.52
2011,11,23,01,16,992.52
2011,11,23,01,17,992.52
2011,11,23,01,18,992.52
2011,11,23,01,19,992.52
2011,11,23,01,20,992.52
2011,11,23,01,21,992.52
2011,11,23,01,22,992.52
2011,11,23,01,23,992.52
2011,11,23,01,24,992.52
2011,11,23,01,25,992.52
2011,11,23,01,26,992.52
2011,11,23,01,27,992.52
2011,11,23,01,28,992.52
2011,11,23,01,29,992.53
2011,11,23,01,30,992.62
2011,11,23,01,31,992.62
2011,11,23,01,32,992.62
2011,11,23,01,33,992.62
2011,11,23,01,34,992.62
2011,11,23,01,35,992.62
2011,11,23,01,36,992.62
2011,11,23,01,37,992.62
2011,11,23,01,38,992.62
2011,11,23,01,39,992.62
2011,11,23,01,40,992.62
2011,11,23,01,41,992.62
2011,11,23,01,42,992.62
2011,11,23,01,43,992.62
2011,11,23,01,44,992.63
2011,11,23,01,45,992.79
2011,11,23,01,46,992.79
2011,11,23,01,47,992.79
2011,11,23,01,48,992.79
2011,11,23,01,49,992.79
2011,11,23,01,50,992.79
2011,11,23,01,51,992.79
2011,11,23,01,52,992.79
2011,11,23,01,53,992.79
2011,11,23,01,54,992.79
2011,11,23,01,55,992.79
2011,11,23,01,56,992.79
2011,11,23,01,57,992.79
2011,11,23,01,58,992.79
2011,11,23,01,59,992.80
2011,11,23,02,00,992.86
2011,11,23,02,01,992.86
2011,11,23,02,02,992.86
2011,11,23,02,03,992.86
2011,11,23,02,04,992.86
2011,11,23,02,05,992.86
2011,11,23,02,06,992.86
2011,11,23,02,07,992.86
2011,11,23,02,08,992.86
2011,11,23,02,09,992.86
2011,11,23,02,10,992.86
2011,11,23,02,11,992.86
2011,11,23,02,12,992.86
2011,11,23,02,13,992.86
2011,11,23,02,14,992.86
2011,11,23,02,15,992.86
2011,11,23,02,16,992.86
2011,11,23,02,17,992.86
2011,11,23,02,18,992.86
2011,11,23,02,19,992.86
2011,11,23,02,20,992.86
2011,11,23,02,21,992.86
2011,11,23,02,22,992.86
2011,11,23,02,23,992.86
2011,11,23,02,24,992.86
2011,11,23,02,25,992.86
2011,11,23,02,26,992.86
2011,11,23,02,27,992.86
2011,11,23,02,28,992.86
2011,11,23,02,29,992.88
2011,11,23,02,30,993.16
2011,11,23,02,31,993.16
2011,11,23,02,32,993.16
2011,11,23,02,33,993.16
2011,11,23,02,34,993.16
2011,11,23,02,35,993.16
2011,11,23,02,36,993.16
2011,11,23,02,37,993.16
2011,11,23,02,38,993.16
2011,11,23,02,39,993.16
2011,11,23,02,40,993.16
2011,11,23,02,41,993.16
2011,11,23,02,42,993.16
2011,11,23,02,43,993.16
2011,11,23,02,44,993.17
2011,11,23,02,45,993.30
2011,11,23,02,46,993.30
2011,11,23,02,47,993.30
2011,11,23,02,48,993.30
2011,11,23,02,49,993.30
2011,11,23,02,50,993.30
2011,11,23,02,51,993.30
2011,11,23,02,52,993.30
2011,11,23,02,53,993.30
2011,11,23,02,54,993.30
2011,11,23,02,55,993.30
2011,11,23,02,56,993.30
2011,11,23,02,57,993.30
2011,11,23,02,58,993.30
2011,11,23,02,59,993.30
2011,11,23,03,00,993.33
2011,11,23,03,01,993.33
2011,11,23,03,02,993.33
2011,11,23,03,03,993.33
2011,11,23,03,04,993.33
2011,11,23,03,05,993.33
2011,11,23,03,06,993.33
2011,11,23,03,07,993.33
2011,11,23,03,08,993.33
2011,11,23,03,09,993.33
2011,11,23,03,10,993.33
2011,11,23,03,11,993.33
2011,11,23,03,12,993.33
2011,11,23,03,13,993.33
2011,11,23,03,14,993.32
2011,11,23,03,15,993.16
2011,11,23,03,16,993.16
2011,11,23,03,17,993.16
2011,11,23,03,18,993.16
2011,11,23,03,19,993.16
2011,11,23,03,20,993.16
2011,11,23,03,21,993.16
2011,11,23,03,22,993.16
2011,11,23,03,23,993.16
2011,11,23,03,24,993.16
2011,11,23,03,25,993.16
2011,11,23,03,26,993.16
2011,11,23,03,27,993.16
2011,11,23,03,28,993.16
2011,11,23,03,29,993.16
2011,11,23,03,30,993.23
2011,11,23,03,31,993.23
2011,11,23,03,32,993.23
2011,11,23,03,33,993.23
2011,11,23,03,34,993.23
2011,11,23,03,35,993.23
2011,11,23,03,36,993.23
2011,11,23,03,37,993.23
2011,11,23,03,38,993.23
2011,11,23,03,39,993.23
2011,11,23,03,40,993.23
2011,11,23,03,41,993.23
2011,11,23,03,42,993.23
2011,11,23,03,43,993.23
2011,11,23,03,44,993.23
2011,11,23,03,45,993.16
2011,11,23,03,46,993.16
2011,11,23,03,47,993.16
2011,11,23,03,48,993.16
2011,11,23,03,49,993.16
2011,11,23,03,50,993.16
2011,11,23,03,51,993.16
2011,11,23,03,52,993.16
2011,11,23,03,53,993.16
2011,11,23,03,54,993.16
2011,11,23,03,55,993.16
2011,11,23,03,56,993.16
2011,11,23,03,57,993.16
2011,11,23,03,58,993.16
2011,11,23,03,59,993.16
2011,11,23,04,00,993.16
2011,11,23,04,01,993.16
2011,11,23,04,02,993.16
2011,11,23,04,03,993.16
2011,11,23,04,04,993.16
2011,11,23,04,05,993.16
2011,11,23,04,06,993.16
2011,11,23,04,07,993.16
2011,11,23,04,08,993.16
2011,11,23,04,09,993.16
2011,11,23,04,10,993.16
2011,11,23,04,11,993.16
2011,11,23,04,12,993.16
2011,11,23,04,13,993.16
2011,11,23,04,14,993.17
2011,11,23,04,15,993.40
2011,11,23,04,16,993.40
2011,11,23,04,17,993.40
2011,11,23,04,18,993.40
2011,11,23,04,19,993.40
2011,11,23,04,20,993.40
2011,11,23,04,21,993.40
2011,11,23,04,22,993.40
2011,11,23,04,23,993.40
2011,11,23,04,24,993.40
2011,11,23,04,25,993.40
2011,11,23,04,26,993.40
2011,11,23,04,27,993.40
2011,11,23,04,28,993.40
2011,11,23,04,29,993.41
2011,11,23,04,30,993.67
2011,11,23,04,31,993.67
2011,11,23,04,32,993.67
2011,11,23,04,33,993.67
2011,11,23,04,34,993.67
2011,11,23,04,35,993.67
2011,11,23,04,36,993.67
2011,11,23,04,37,993.67
2011,11,23,04,38,993.67
2011,11,23,04,39,993.67
2011,11,23,04,40,993.67
2011,11,23,04,41,993.67
2011,11,23,04,42,993.67
2011,11,23,04,43,993.67
2011,11,23,04,44,993.68
2011,11,23,04,45,993.80
2011,11,23,04,46,993.80
2011,11,23,04,47,993.80
2011,11,23,04,48,993.80
2011,11,23,04,49,993.80
2011,11,23,04,50,993.80
2011,11,23,04,51,993.80
2011,11,23,04,52,993.80
2011,11,23,04,53,993.80
2011,11,23,04,54,993.80
2011,11,23,04,55,993.80
2011,11,23,04,56,993.80
2011,11,23,04,57,993.80
2011,11,23,04,58,993.80
2011,11,23,04,59,993.82
2011,11,23,05,00,994.14
2011,11,23,05,01,994.14
2011,11,23,05,02,994.14
2011,11,23,05,03,994.14
2011,11,23,05,04,994.14
2011,11,23,05,05,994.14
2011,11,23,05,06,994.14
2011,11,23,05,07,994.14
2011,11,23,05,08,994.14
2011,11,23,05,09,994.14
2011,11,23,05,10,994.14
2011,11,23,05,11,994.14
2011,11,23,05,12,994.14
2011,11,23,05,13,994.14
2011,11,23,05,14,994.16
2011,11,23,05,15,994.58
2011,11,23,05,16,994.58
2011,11,23,05,17,994.58
2011,11,23,05,18,994.58
2011,11,23,05,19,994.58
2011,11,23,05,20,994.58
2011,11,23,05,21,994.58
2011,11,23,05,22,994.58
2011,11,23,05,23,994.58
2011,11,23,05,24,994.58
2011,11,23,05,25,994.58
2011,11,23,05,26,994.58
2011,11,23,05,27,994.58
2011,11,23,05,28,994.58
2011,11,23,05,29,994.59
2011,11,23,05,30,994.68
2011,11,23,05,31,994.68
2011,11,23,05,32,994.68
2011,11,23,05,33,994.68
2011,11,23,05,34,994.68
2011,11,23,05,35,994.68
2011,11,23,05,36,994.68
2011,11,23,05,37,994.68
2011,11,23,05,38,994.68
2011,11,23,05,39,994.68
2011,11,23,05,40,994.68
2011,11,23,05,41,994.68
2011,11,23,05,42,994.68
2011,11,23,05,43,994.68
2011,11,23,05,44,994.70
2011,11,23,05,45,994.99
2011,11,23,05,46,994.99
2011,11,23,05,47,994.99
2011,11,23,05,48,994.99
2011,11,23,05,49,994.99
2011,11,23,05,50,994.99
2011,11,23,05,51,994.99
2011,11,23,05,52,994.99
2011,11,23,05,53,994.99
2011,11,23,05,54,994.99
2011,11,23,05,55,994.99
2011,11,23,05,56,994.99
2011,11,23,05,57,994.99
2011,11,23,05,58,994.99
2011,11,23,05,59,995.00
2011,11,23,06,00,995.12
2011,11,23,06,01,995.12
2011,11,23,06,02,995.12
2011,11,23,06,03,995.12
2011,11,23,06,04,995.12
2011,11,23,06,05,995.12
2011,11,23,06,06,995.12
2011,11,23,06,07,995.12
2011,11,23,06,08,995.12
2011,11,23,06,09,995.12
2011,11,23,06,10,995.12
2011,11,23,06,11,995.12
2011,11,23,06,12,995.12
2011,11,23,06,13,995.12
2011,11,23,06,14,995.13
2011,11,23,06,15,995.40
2011,11,23,06,16,995.40
2011,11,23,06,17,995.40
2011,11,23,06,18,995.40
2011,11,23,06,19,995.40
2011,11,23,06,20,995.40
2011,11,23,06,21,995.40
2011,11,23,06,22,995.40
2011,11,23,06,23,995.40
2011,11,23,06,24,995.40
2011,11,23,06,25,995.40
2011,11,23,06,26,995.40
2011,11,23,06,27,995.40
2011,11,23,06,28,995.40
2011,11,23,06,29,995.41
2011,11,23,06,30,995.67
2011,11,23,06,31,995.67
2011,11,23,06,32,995.67
2011,11,23,06,33,995.67
2011,11,23,06,34,995.67
2011,11,23,06,35,995.67
2011,11,23,06,36,995.67
2011,11,23,06,37,995.67
2011,11,23,06,38,995.67
2011,11,23,06,39,995.67
2011,11,23,06,40,995.67
2011,11,23,06,41,995.67
2011,11,23,06,42,995.67
2011,11,23,06,43,995.67
2011,11,23,06,44,995.67
2011,11,23,06,45,995.77
2011,11,23,06,46,995.77
2011,11,23,06,47,995.77
2011,11,23,06,48,995.77
2011,11,23,06,49,995.77
2011,11,23,06,50,995.77
2011,11,23,06,51,995.77
2011,11,23,06,52,995.77
2011,11,23,06,53,995.77
2011,11,23,06,54,995.77
2011,11,23,06,55,995.77
2011,11,23,06,56,995.77
2011,11,23,06,57,995.77
2011,11,23,06,58,995.77
2011,11,23,06,59,995.78
2011,11,23,07,00,995.94
2011,11,23,07,01,995.94
2011,11,23,07,02,995.94
2011,11,23,07,03,995.94
2011,11,23,07,04,995.94
2011,11,23,07,05,995.94
2011,11,23,07,06,995.94
2011,11,23,07,07,995.94
2011,11,23,07,08,995.94
2011,11,23,07,09,995.94
2011,11,23,07,10,995.94
2011,11,23,07,11,995.94
2011,11,23,07,12,995.94
2011,11,23,07,13,995.94
2011,11,23,07,14,995.94
2011,11,23,07,15,996.58
2011,11,23,07,16,996.58
2011,11,23,07,17,996.58
2011,11,23,07,18,996.58
2011,11,23,07,19,996.58
2011,11,23,07,20,996.58
2011,11,23,07,21,996.58
2011,11,23,07,22,996.58
2011,11,23,07,23,996.58
2011,11,23,07,24,996.58
2011,11,23,07,25,996.58
2011,11,23,07,26,996.58
2011,11,23,07,27,996.58
2011,11,23,07,28,996.58
2011,11,23,07,29,996.59
2011,11,23,07,30,996.82
2011,11,23,07,31,996.82
2011,11,23,07,32,996.82
2011,11,23,07,33,996.82
2011,11,23,07,34,996.82
2011,11,23,07,35,996.82
2011,11,23,07,36,996.82
2011,11,23,07,37,996.82
2011,11,23,07,38,996.82
2011,11,23,07,39,996.82
2011,11,23,07,40,996.82
2011,11,23,07,41,996.82
2011,11,23,07,42,996.82
2011,11,23,07,43,996.82
2011,11,23,07,44,996.82
2011,11,23,07,45,997.36
2011,11,23,07,46,997.36
2011,11,23,07,47,997.36
2011,11,23,07,48,997.36
2011,11,23,07,49,997.36
2011,11,23,07,50,997.36
2011,11,23,07,51,997.36
2011,11,23,07,52,997.36
2011,11,23,07,53,997.36
2011,11,23,07,54,997.36
2011,11,23,07,55,997.36
2011,11,23,07,56,997.36
2011,11,23,07,57,997.36
2011,11,23,07,58,997.36
2011,11,23,07,59,997.36
2011,11,23,08,00,997.39
2011,11,23,08,01,997.39
2011,11,23,08,02,997.39
2011,11,23,08,03,997.39
2011,11,23,08,04,997.39
2011,11,23,08,05,997.39
2011,11,23,08,06,997.39
2011,11,23,08,07,997.39
2011,11,23,08,08,997.39
2011,11,23,08,09,997.39
2011,11,23,08,10,997.39
2011,11,23,08,11,997.39
2011,11,23,08,12,997.39
2011,11,23,08,13,997.39
2011,11,23,08,14,997.39
2011,11,23,08,15,997.90
2011,11,23,08,16,997.90
2011,11,23,08,17,997.90
2011,11,23,08,18,997.90
2011,11,23,08,19,997.90
2011,11,23,08,20,997.90
2011,11,23,08,21,997.90
2011,11,23,08,22,997.90
2011,11,23,08,23,997.90
2011,11,23,08,24,997.90
2011,11,23,08,25,997.90
2011,11,23,08,26,997.90
2011,11,23,08,27,997.90
2011,11,23,08,28,997.90
2011,11,23,08,29,997.90
2011,11,23,08,30,998.31
2011,11,23,08,31,998.31
2011,11,23,08,32,998.31
2011,11,23,08,33,998.31
2011,11,23,08,34,998.31
2011,11,23,08,35,998.31
2011,11,23,08,36,998.31
2011,11,23,08,37,998.31
2011,11,23,08,38,998.31
2011,11,23,08,39,998.31
2011,11,23,08,40,998.31
2011,11,23,08,41,998.31
2011,11,23,08,42,998.31
2011,11,23,08,43,998.31
2011,11,23,08,44,998.31
2011,11,23,08,45,998.68
2011,11,23,08,46,998.68
2011,11,23,08,47,998.68
2011,11,23,08,48,998.68
2011,11,23,08,49,998.68
2011,11,23,08,50,998.68
2011,11,23,08,51,998.68
2011,11,23,08,52,998.68
2011,11,23,08,53,998.68
2011,11,23,08,54,998.68
2011,11,23,08,55,998.68
2011,11,23,08,56,998.68
2011,11,23,08,57,998.68
2011,11,23,08,58,998.68
2011,11,23,08,59,998.68
2011,11,23,09,00,998.99
2011,11,23,09,01,998.99
2011,11,23,09,02,998.99
2011,11,23,09,03,998.99
2011,11,23,09,04,998.99
2011,11,23,09,05,998.99
2011,11,23,09,06,998.99
2011,11,23,09,07,998.99
2011,11,23,09,08,998.99
2011,11,23,09,09,998.99
2011,11,23,09,10,998.99
2011,11,23,09,11,998.99
2011,11,23,09,12,998.99
2011,11,23,09,13,998.99
2011,11,23,09,14,998.99
2011,11,23,09,15,999.02
2011,11,23,09,16,999.02
2011,11,23,09,17,999.02
2011,11,23,09,18,999.02
2011,11,23,09,19,999.02
2011,11,23,09,20,999.02
2011,11,23,09,21,999.02
2011,11,23,09,22,999.02
2011,11,23,09,23,999.02
2011,11,23,09,24,999.02
2011,11,23,09,25,999.02
2011,11,23,09,26,999.02
2011,11,23,09,27,999.02
2011,11,23,09,28,999.02
2011,11,23,09,29,999.02
2011,11,23,09,30,999.43
2011,11,23,09,31,999.43
2011,11,23,09,32,999.43
2011,11,23,09,33,999.43
2011,11,23,09,34,999.43
2011,11,23,09,35,999.43
2011,11,23,09,36,999.43
2011,11,23,09,37,999.43
2011,11,23,09,38,999.43
2011,11,23,09,39,999.43
2011,11,23,09,40,999.43
2011,11,23,09,41,999.43
2011,11,23,09,42,999.43
2011,11,23,09,43,999.43
2011,11,23,09,44,999.44
2011,11,23,09,45,999.59
2011,11,23,09,46,999.59
2011,11,23,09,47,999.59
2011,11,23,09,48,999.59
2011,11,23,09,49,999.59
2011,11,23,09,50,999.59
2011,11,23,09,51,999.59
2011,11,23,09,52,999.59
2011,11,23,09,53,999.59
2011,11,23,09,54,999.59
2011,11,23,09,55,999.59
2011,11,23,09,56,999.59
2011,11,23,09,57,999.59
2011,11,23,09,58,999.59
2011,11,23,09,59,999.59
2011,11,23,10,00,999.93
2011,11,23,10,01,999.93
2011,11,23,10,02,999.93
2011,11,23,10,03,999.93
2011,11,23,10,04,999.93
2011,11,23,10,05,999.93
2011,11,23,10,06,999.93
2011,11,23,10,07,999.93
2011,11,23,10,08,999.93
2011,11,23,10,09,999.93
2011,11,23,10,10,999.93
2011,11,23,10,11,999.93
2011,11,23,10,12,999.93
2011,11,23,10,13,999.93
2011,11,23,10,14,999.93
2011,11,23,10,15,1000.37
2011,11,23,10,16,1000.37
2011,11,23,10,17,1000.37
2011,11,23,10,18,1000.37
2011,11,23,10,19,1000.37
2011,11,23,10,20,1000.37
2011,11,23,10,21,1000.37
2011,11,23,10,22,1000.37
2011,11,23,10,23,1000.37
2011,11,23,10,24,1000.37
2011,11,23,10,25,1000.37
2011,11,23,10,26,1000.37
2011,11,23,10,27,1000.37
2011,11,23,10,28,1000.37
2011,11,23,10,29,1000.37
2011,11,23,10,30,1000.48
2011,11,23,10,31,1000.48
2011,11,23,10,32,1000.48
2011,11,23,10,33,1000.48
2011,11,23,10,34,1000.48
2011,11,23,10,35,1000.48
2011,11,23,10,36,1000.48
2011,11,23,10,37,1000.48
2011,11,23,10,38,1000.48
2011,11,23,10,39,1000.48
2011,11,23,10,40,1000.48
2011,11,23,10,41,1000.48
2011,11,23,10,42,1000.48
2011,11,23,10,43,1000.48
2011,11,23,10,44,1000.48
2011,11,23,10,45,1000.71
2011,11,23,10,46,1000.71
2011,11,23,10,47,1000.71
2011,11,23,10,48,1000.71
2011,11,23,10,49,1000.71
2011,11,23,10,50,1000.71
2011,11,23,10,51,1000.71
2011,11,23,10,52,1000.71
2011,11,23,10,53,1000.71
2011,11,23,10,54,1000.71
2011,11,23,10,55,1000.71
2011,11,23,10,56,1000.71
2011,11,23,10,57,1000.71
2011,11,23,10,58,1000.71
2011,11,23,10,59,1000.71
2011,11,23,11,00,1000.88
2011,11,23,11,01,1000.88
2011,11,23,11,02,1000.88
2011,11,23,11,03,1000.88
2011,11,23,11,04,1000.88
2011,11,23,11,05,1000.88
2011,11,23,11,06,1000.88
2011,11,23,11,07,1000.88
2011,11,23,11,08,1000.88
2011,11,23,11,09,1000.88
2011,11,23,11,10,1000.88
2011,11,23,11,11,1000.88
2011,11,23,11,12,1000.88
2011,11,23,11,13,1000.88
2011,11,23,11,14,1000.88
2011,11,23,11,15,1001.02
2011,11,23,11,16,1001.02
2011,11,23,11,17,1001.02
2011,11,23,11,18,1001.02
2011,11,23,11,19,1001.02
2011,11,23,11,20,1001.02
2011,11,23,11,21,1001.02
2011,11,23,11,22,1001.02
2011,11,23,11,23,1001.02
2011,11,23,11,24,1001.02
2011,11,23,11,25,1001.02
2011,11,23,11,26,1001.02
2011,11,23,11,27,1001.02
2011,11,23,11,28,1001.02
2011,11,23,11,29,1001.02
2011,11,23,11,30,1001.32
2011,11,23,11,31,1001.32
2011,11,23,11,32,1001.32
2011,11,23,11,33,1001.32
2011,11,23,11,34,1001.32
2011,11,23,11,35,1001.32
2011,11,23,11,36,1001.32
2011,11,23,11,37,1001.32
2011,11,23,11,38,1001.32
2011,11,23,11,39,1001.32
2011,11,23,11,40,1001.32
2011,11,23,11,41,1001.32
2011,11,23,11,42,1001.32
2011,11,23,11,43,1001.32
2011,11,23,11,44,1001.32
2011,11,23,11,45,1001.49
2011,11,23,11,46,1001.49
2011,11,23,11,47,1001.49
2011,11,23,11,48,1001.49
2011,11,23,11,49,1001.49
2011,11,23,11,50,1001.49
2011,11,23,11,51,1001.49
2011,11,23,11,52,1001.49
2011,11,23,11,53,1001.49
2011,11,23,11,54,1001.49
2011,11,23,11,55,1001.49
2011,11,23,11,56,1001.49
2011,11,23,11,57,1001.49
2011,11,23,11,58,1001.49
2011,11,23,11,59,1001.49
2011,11,23,12,00,1001.52
2011,11,23,12,01,1001.52
2011,11,23,12,02,1001.52
2011,11,23,12,03,1001.52
2011,11,23,12,04,1001.52
2011,11,23,12,05,1001.52
2011,11,23,12,06,1001.52
2011,11,23,12,07,1001.52
2011,11,23,12,08,1001.52
2011,11,23,12,09,1001.52
2011,11,23,12,10,1001.52
2011,11,23,12,11,1001.52
2011,11,23,12,12,1001.52
2011,11,23,12,13,1001.52
2011,11,23,12,14,1001.52
2011,11,23,12,15,1001.63
2011,11,23,12,16,1001.63
2011,11,23,12,17,1001.63
2011,11,23,12,18,1001.63
2011,11,23,12,19,1001.63
2011,11,23,12,20,1001.63
2011,11,23,12,21,1001.63
2011,11,23,12,22,1001.63
2011,11,23,12,23,1001.63
2011,11,23,12,24,1001.63
2011,11,23,12,25,1001.63
2011,11,23,12,26,1001.63
2011,11,23,12,27,1001.63
2011,11,23,12,28,1001.63
2011,11,23,12,29,1001.63
2011,11,23,12,30,1002.00
2011,11,23,12,31,1002.00
2011,11,23,12,32,1002.00
2011,11,23,12,33,1002.00
2011,11,23,12,34,1002.00
2011,11,23,12,35,1002.00
2011,11,23,12,36,1002.00
2011,11,23,12,37,1002.00
2011,11,23,12,38,1002.00
2011,11,23,12,39,1002.00
2011,11,23,12,40,1002.00
2011,11,23,12,41,1002.00
2011,11,23,12,42,1002.00
2011,11,23,12,43,1002.00
2011,11,23,12,44,1002.00
2011,11,23,12,45,1002.07
2011,11,23,12,46,1002.07
2011,11,23,12,47,1002.07
2011,11,23,12,48,1002.07
2011,11,23,12,49,1002.07
2011,11,23,12,50,1002.07
2011,11,23,12,51,1002.07
2011,11,23,12,52,1002.07
2011,11,23,12,53,1002.07
2011,11,23,12,54,1002.07
2011,11,23,12,55,1002.07
2011,11,23,12,56,1002.07
2011,11,23,12,57,1002.07
2011,11,23,12,58,1002.07
2011,11,23,12,59,1002.07
2011,11,23,13,00,1002.37
2011,11,23,13,01,1002.37
2011,11,23,13,02,1002.37
2011,11,23,13,03,1002.37
2011,11,23,13,04,1002.37
2011,11,23,13,05,1002.37
2011,11,23,13,06,1002.37
2011,11,23,13,07,1002.37
2011,11,23,13,08,1002.37
2011,11,23,13,09,1002.37
2011,11,23,13,10,1002.37
2011,11,23,13,11,1002.37
2011,11,23,13,12,1002.37
2011,11,23,13,13,1002.37
2011,11,23,13,14,1002.37
2011,11,23,13,15,1002.27
2011,11,23,13,16,1002.27
2011,11,23,13,17,1002.27
2011,11,23,13,18,1002.27
2011,11,23,13,19,1002.27
2011,11,23,13,20,1002.27
2011,11,23,13,21,1002.27
2011,11,23,13,22,1002.27
2011,11,23,13,23,1002.27
2011,11,23,13,24,1002.27
2011,11,23,13,25,1002.27
2011,11,23,13,26,1002.27
2011,11,23,13,27,1002.27
2011,11,23,13,28,1002.27
2011,11,23,13,29,1002.27
2011,11,23,13,30,1002.57
2011,11,23,13,31,1002.57
2011,11,23,13,32,1002.57
2011,11,23,13,33,1002.57
2011,11,23,13,34,1002.57
2011,11,23,13,35,1002.57
2011,11,23,13,36,1002.57
2011,11,23,13,37,1002.57
2011,11,23,13,38,1002.57
2011,11,23,13,39,1002.57
2011,11,23,13,40,1002.57
2011,11,23,13,41,1002.57
2011,11,23,13,42,1002.57
2011,11,23,13,43,1002.57
2011,11,23,13,44,1002.57
2011,11,23,13,45,1002.61
2011,11,23,13,46,1002.61
2011,11,23,13,47,1002.61
2011,11,23,13,48,1002.61
2011,11,23,13,49,1002.61
2011,11,23,13,50,1002.61
2011,11,23,13,51,1002.61
2011,11,23,13,52,1002.61
2011,11,23,13,53,1002.61
2011,11,23,13,54,1002.61
2011,11,23,13,55,1002.61
2011,11,23,13,56,1002.61
2011,11,23,13,57,1002.61
2011,11,23,13,58,1002.61
2011,11,23,13,59,1002.61
2011,11,23,14,00,1002.78
2011,11,23,14,01,1002.78
2011,11,23,14,02,1002.78
2011,11,23,14,03,1002.78
2011,11,23,14,04,1002.78
2011,11,23,14,05,1002.78
2011,11,23,14,06,1002.78
2011,11,23,14,07,1002.78
2011,11,23,14,08,1002.78
2011,11,23,14,09,1002.78
2011,11,23,14,10,1002.78
2011,11,23,14,11,1002.78
2011,11,23,14,12,1002.78
2011,11,23,14,13,1002.78
2011,11,23,14,14,1002.78
2011,11,23,14,15,1002.88
2011,11,23,14,16,1002.88
2011,11,23,14,17,1002.88
2011,11,23,14,18,1002.88
2011,11,23,14,19,1002.88
2011,11,23,14,20,1002.88
2011,11,23,14,21,1002.88
2011,11,23,14,22,1002.88
2011,11,23,14,23,1002.88
2011,11,23,14,24,1002.88
2011,11,23,14,25,1002.88
2011,11,23,14,26,1002.88
2011,11,23,14,27,1002.88
2011,11,23,14,28,1002.88
2011,11,23,14,29,1002.88
2011,11,23,14,30,1003.00
2011,11,23,14,31,1003.01
2011,11,23,14,32,1003.01
2011,11,23,14,33,1003.01
2011,11,23,14,34,1003.01
2011,11,23,14,35,1003.01
2011,11,23,14,36,1003.01
2011,11,23,14,37,1003.01
2011,11,23,14,38,1003.01
2011,11,23,14,39,1003.01
2011,11,23,14,40,1003.01
2011,11,23,14,41,1003.01
2011,11,23,14,42,1003.01
2011,11,23,14,43,1003.01
2011,11,23,14,44,1003.01
2011,11,23,14,45,1003.08
2011,11,23,14,46,1003.08
2011,11,23,14,47,1003.08
2011,11,23,14,48,1003.08
2011,11,23,14,49,1003.08
2011,11,23,14,50,1003.08
2011,11,23,14,51,1003.08
2011,11,23,14,52,1003.08
2011,11,23,14,53,1003.08
2011,11,23,14,54,1003.08
2011,11,23,14,55,1003.08
2011,11,23,14,56,1003.08
2011,11,23,14,57,1003.08
2011,11,23,14,58,1003.08
2011,11,23,14,59,1003.08
2011,11,23,15,00,1003.50
2011,11,23,15,01,1003.52
2011,11,23,15,02,1003.52
2011,11,23,15,03,1003.52
2011,11,23,15,04,1003.52
2011,11,23,15,05,1003.52
2011,11,23,15,06,1003.52
2011,11,23,15,07,1003.52
2011,11,23,15,08,1003.52
2011,11,23,15,09,1003.52
2011,11,23,15,10,1003.52
2011,11,23,15,11,1003.52
2011,11,23,15,12,1003.52
2011,11,23,15,13,1003.52
2011,11,23,15,14,1003.52
2011,11,23,15,15,1003.61
2011,11,23,15,16,1003.62
2011,11,23,15,17,1003.62
2011,11,23,15,18,1003.62
2011,11,23,15,19,1003.62
2011,11,23,15,20,1003.62
2011,11,23,15,21,1003.62
2011,11,23,15,22,1003.62
2011,11,23,15,23,1003.62
2011,11,23,15,24,1003.62
2011,11,23,15,25,1003.62
2011,11,23,15,26,1003.62
2011,11,23,15,27,1003.62
2011,11,23,15,28,1003.62
2011,11,23,15,29,1003.62
2011,11,23,15,30,1003.83
2011,11,23,15,31,1003.83
2011,11,23,15,32,1003.83
2011,11,23,15,33,1003.83
2011,11,23,15,34,1003.83
2011,11,23,15,35,1003.83
2011,11,23,15,36,1003.83
2011,11,23,15,37,1003.83
2011,11,23,15,38,1003.83
2011,11,23,15,39,1003.83
2011,11,23,15,40,1003.83
2011,11,23,15,41,1003.83
2011,11,23,15,42,1003.83
2011,11,23,15,43,1003.83
2011,11,23,15,44,1003.83
2011,11,23,15,45,1004.06
2011,11,23,15,46,1004.06
2011,11,23,15,47,1004.06
2011,11,23,15,48,1004.06
2011,11,23,15,49,1004.06
2011,11,23,15,50,1004.06
2011,11,23,15,51,1004.06
2011,11,23,15,52,1004.06
2011,11,23,15,53,1004.06
2011,11,23,15,54,1004.06
2011,11,23,15,55,1004.06
2011,11,23,15,56,1004.06
2011,11,23,15,57,1004.06
2011,11,23,15,58,1004.06
2011,11,23,15,59,1004.06
2011,11,23,16,00,1004.27
2011,11,23,16,01,1004.27
2011,11,23,16,02,1004.27
2011,11,23,16,03,1004.27
2011,11,23,16,04,1004.27
2011,11,23,16,05,1004.27
2011,11,23,16,06,1004.27
2011,11,23,16,07,1004.27
2011,11,23,16,08,1004.27
2011,11,23,16,09,1004.27
2011,11,23,16,10,1004.27
2011,11,23,16,11,1004.27
2011,11,23,16,12,1004.27
2011,11,23,16,13,1004.27
2011,11,23,16,14,1004.27
2011,11,23,16,15,1004.59
2011,11,23,16,16,1004.61
2011,11,23,16,17,1004.61
2011,11,23,16,18,1004.61
2011,11,23,16,19,1004.61
2011,11,23,16,20,1004.61
2011,11,23,16,21,1004.61
2011,11,23,16,22,1004.61